Weather in Yeloshnoye

Russia / Kurgan Oblast     55°27′23″N   66°42′59″E
temp.,
°C
wind,
m/s
gust,
m/s
humid.,
%
clouds,
%
prec.,
mm/h
press.,
hPa
HPBL,
m
2 july, sat
sat223:00+11nw378897 0.0 1012178
02:00+9wnw359297 0.0 101281
05:00+9wnw359175 0.0 101299
08:00+12nw3578100 0.0 1012286
11:00+13nw457996 0.0 1012292
14:00+16nnw456398 0.0 1012967
17:00+18nnw3555100 0.1 10111554
20:00+14nw227449 0.1 101133
3 july, sun
sun323:00+11wnw33808 0.1 101128
02:00+12w358068 0.0 101076
05:00+12wnw378175 0.0 1010148
08:00+14w4780100 0.0 1010218
11:00+18w576692 0.0 1009432
14:00+21wsw455637 0.0 10081257
17:00+21w55565 0.0 10071167
20:00+18w35769 0.7 100684
4 july, mon
mon423:00+14nnw228819 1.4 100623
02:00+12nne339391 0.5 100642
05:00+12ne5998100 0.6 1006288
08:00+13ne5896100 0.1 1006503
11:00+13ne6990100 0.1 1007687
14:00+15ne797699 0.1 10071047
17:00+16ne7967100 0.1 10061242
20:00+14nne61075100 0.1 1007848
5 july, tue
tue523:00+10n5128655 0.1 1007347
02:00+11n6128489 0.0 1007431
05:00+11n6118398 0.0 1007456
08:00+11n51181100 0.0 1008515
11:00+15nne686532 0.0 10091270
14:00+16nne6860100 0.7 10101425
17:00+17n675667 0.9 10101534
20:00+14nw3471100 0.0 101180
6 july, wed
wed623:00+13nw3767100 0.0 1011154
02:00+12nnw3576100 0.0 1011127
05:00+12nw3478100 0.0 1012115
08:00+12nw2378100 0.0 1013152
11:00+15w2266100 0.0 1013500
14:00+16nnw2263100 0.0 1012963
17:00+13e2286100 0.2 101374
20:00+13se1187100 0.1 101431